SCP
1 2 2 2 3 3 3 2 2 2 2 3 3 2 2 2 2 2 2 2 2 1 1 1 1 1 1 1 1 1 1 1 1 1 1 0 0 0 0 0 0 1 1
1 2 2 3 3 3 3 2 2 2 2 3 3 3 3 2 2 2 2 2 2 2 2 2 2 2 2 1 1 2 1 1 1 1 1 1 0 0 0 0 0 1 1
1 2 3 4 5 4 4 3 3 3 3 3 3 3 3 3 2 2 3 3 2 2 2 2 3 3 2 2 2 2 2 2 1 1 1 1 1 0 0 0 1 1 1
1 2 3 5 6 6 4 4 4 4 4 4 4 4 3 3 2 2 2 3 3 3 3 3 3 3 3 3 2 2 2 2 2 1 1 1 0 0 0 0 1 1 1
2 2 3 5 6 6 5 4 4 5 5 4 3 3 3 3 2 2 2 2 3 3 4 4 4 4 4 3 3 2 2 2 2 2 1 1 0 0 0 0 0 1 1
2 3 4 5 6 6 5 5 4 4 4 3 3 3 3 3 2 2 2 2 2 4 5 5 5 5 4 4 3 3 2 2 2 2 2 1 1 1 0 0 0 1 1
3 4 5 5 6 5 5 4 4 3 3 3 3 3 3 3 3 2 2 2 2 3 4 5 6 5 5 4 3 3 3 3 2 2 2 2 1 1 1 1 1 1 0
5 6 6 6 5 5 4 4 4 3 3 4 4 3 2 3 3 3 3 3 2 2 4 5 6 5 4 3 2 2 2 2 2 2 2 2 1 1 1 1 1 1 0
8 8 8 7 6 5 4 3 3 3 3 4 4 3 2 3 3 3 3 3 3 3 4 5 6 5 4 3 2 2 2 2 2 2 2 2 1 1 1 1 1 1 0
10 9 8 6 5 4 3 2 2 2 2 3 3 3 3 3 3 3 3 3 3 4 4 5 6 5 3 2 2 2 2 2 1 1 1 1 1 1 1 1 1 0 0
8 6 5 4 3 3 2 2 1 1 2 3 4 5 4 4 3 3 3 3 3 4 3 3 4 3 2 2 2 2 1 1 1 1 1 1 1 1 1 1 1 0 0
4 4 3 2 2 2 2 2 1 1 2 3 5 5 5 4 4 3 3 3 3 3 2 2 2 1 1 1 1 1 1 1 1 1 1 1 1 1 1 1 0 0 0
3 3 3 2 2 2 2 2 1 1 1 2 3 4 4 4 3 3 2 2 2 2 1 1 1 1 1 1 1 1 1 1 1 1 1 1 1 1 1 0 0 0 0
3 3 3 2 2 2 2 2 2 1 1 2 2 2 2 2 2 2 2 2 1 1 1 0 0 0 0 1 1 1 2 2 1 1 1 1 1 1 1 1 0 0 0
2 2 2 1 1 1 2 2 2 2 2 2 1 1 1 2 2 2 2 2 1 1 1 0 0 0 0 0 1 1 2 2 2 2 1 1 1 1 1 1 0 0 0
2 1 1 1 1 1 2 2 2 2 2 2 1 1 1 1 1 2 2 1 1 1 1 0 0 0 0 0 0 0 1 2 2 2 2 1 1 1 1 0 0 0 0
1 1 1 1 1 1 1 1 1 1 1 1 1 1 1 1 1 1 1 1 1 1 1 0 0 0 0 0 0 0 0 1 1 2 2 2 1 1 1 0 0 0 0
1 1 1 1 1 1 1 1 0 0 0 1 1 1 1 1 1 0 1 1 1 1 1 0 0 0 0 0 0 0 0 0 0 1 2 2 2 2 1 1 1 1 0
0 1 1 1 1 0 0 0 0 0 0 0 0 1 1 1 1 1 1 1 1 1 1 0 0 0 0 0 0 0 0 0 0 0 1 1 2 2 1 1 1 1 1
0 1 1 1 1 0 0 0 0 0 0 0 0 0 1 1 1 1 1 1 1 1 1 0 0 0 0 0 0 0 0 0 0 0 0 1 1 1 1 1 1 2 1
1 1 1 1 0 0 0 0 0 0 0 0 0 0 0 1 1 1 1 1 1 1 0 0 0 0 0 0 0 0 0 0 0 0 0 0 0 0 0 1 1 1 1
1 1 1 1 0 0 0 0 0 0 0 0 0 0 0 1 1 1 1 1 1 0 0 0 0 0 0 0 0 0 0 0 0 0 0 0 0 0 0 0 1 1 1
1 1 1 1 0 0 0 0 0 0 0 0 0 0 0 1 1 1 1 1 0 0 0 0 0 0 0 0 0 0 0 0 0 0 0 0 0 0 0 0 0 0 0
1 1 1 0 0 0 0 0 0 0 1 1 1 1 1 1 2 1 1 0 0 0 0 0 0 0 0 0 0 0 0 0 0 0 0 0 0 0 0 0 0 0 0
1 1 1 0 0 0 0 0 0 1 1 1 1 1 1 2 2 1 0 0 0 0 0 0 0 0 0 0 0 0 0 0 0 0 0 0 0 0 0 1 1 0 0
1 1 0 0 0 0 0 0 0 1 1 1 1 1 1 2 1 1 0 0 0 0 0 0 0 0 0 0 0 0 0 0 0 0 0 0 0 0 1 1 1 1 0
Wind_Speed
4 3 4 5 6 5 5 5 5 4 3 2 2 2 1 0 0 0 1 1 1 1 1 1 1 1 1 1 1 1 1 1 1 2 2 2 1 1 1 1 1 0 1
1 2 3 4 5 6 6 6 5 4 4 3 2 1 2 1 0 0 0 1 1 1 2 1 1 1 1 1 1 1 1 0 1 1 1 1 2 2 1 1 0 1 1
4 3 3 4 4 5 5 5 5 4 3 3 2 2 2 2 1 0 1 1 1 1 1 2 2 1 1 1 2 2 2 1 0 1 2 2 1 2 2 1 1 1 1
3 3 3 3 4 4 4 4 4 4 4 4 3 3 3 2 2 1 1 1 0 0 1 2 2 2 1 1 2 2 2 2 1 0 0 1 2 1 1 2 2 2 1
2 2 3 3 3 3 4 3 4 3 3 4 4 3 2 2 1 1 0 0 1 0 0 1 1 1 1 1 2 2 2 2 2 2 1 1 1 1 2 2 2 2 2
2 2 2 3 3 3 3 3 4 3 3 4 4 4 4 3 2 1 1 1 1 0 0 0 0 1 1 2 2 2 2 2 2 2 2 2 2 2 2 2 2 2 2
3 3 3 3 3 3 3 3 4 3 3 3 3 3 3 3 3 2 2 1 1 1 1 1 1 1 1 2 2 2 2 3 3 3 2 2 2 2 2 2 1 1 1
3 3 3 3 3 3 3 3 3 3 2 3 3 2 2 2 2 2 2 2 2 2 1 1 1 1 2 2 2 2 3 3 3 3 3 2 2 2 2 2 2 1 1
3 3 3 3 3 2 2 3 3 2 2 2 3 2 2 1 1 1 1 1 1 1 1 1 1 2 2 2 2 2 3 2 3 3 3 2 2 2 2 2 2 2 2
3 3 3 2 2 2 2 2 2 3 2 2 2 2 1 1 1 1 1 1 1 1 1 1 1 2 2 2 1 2 2 2 2 2 2 2 2 2 2 2 2 2 2
4 3 2 2 2 2 2 2 2 3 2 2 2 2 2 1 1 0 1 1 1 1 1 1 1 1 2 1 1 2 1 2 2 2 2 2 2 2 2 2 2 2 2
3 3 3 3 2 2 3 3 3 3 2 2 2 2 1 1 1 0 1 1 1 1 1 1 2 2 2 2 2 2 1 1 2 2 3 3 2 3 2 2 2 2 3
3 3 2 2 2 2 2 3 3 2 2 2 2 2 1 1 1 1 1 1 1 1 1 1 2 2 2 2 2 2 2 2 3 3 3 3 3 3 2 3 3 2 2
3 3 3 2 2 2 2 3 3 2 2 2 2 1 0 1 1 1 1 1 1 1 2 2 2 2 2 2 2 2 2 2 2 3 3 3 4 4 4 3 3 3 3
4 4 4 3 2 2 2 2 2 2 2 2 2 1 1 1 1 1 1 1 2 2 2 2 2 2 2 2 2 2 2 2 2 2 2 3 3 4 4 4 4 4 3
5 5 4 3 3 3 3 2 2 2 2 2 1 1 0 0 1 1 1 1 2 2 2 2 2 2 3 4 4 3 2 2 2 2 2 2 3 4 4 5 6 6 6
5 5 4 4 4 3 3 4 3 2 2 2 1 1 1 1 1 1 1 2 2 2 2 2 2 3 4 5 4 3 2 2 2 2 2 2 2 3 2 3 3 4 5
5 5 4 4 4 3 3 3 3 3 3 2 1 1 1 1 1 1 2 2 2 2 2 3 3 3 4 4 3 3 2 2 2 2 2 2 2 2 2 2 2 3 3
4 4 4 4 4 4 4 4 3 3 3 2 2 2 2 1 1 1 2 2 2 2 2 2 3 3 4 4 4 2 1 1 2 2 2 2 2 2 2 3 2 2 2
1 2 2 3 4 3 4 4 3 3 3 4 3 2 2 2 2 2 2 2 2 2 2 2 2 3 4 4 3 2 1 2 2 2 2 2 2 2 3 3 3 3 3
2 3 3 4 4 4 4 4 3 4 4 3 3 2 2 2 2 2 1 1 1 2 2 2 2 2 3 4 3 2 1 2 2 2 2 2 2 2 2 3 3 5 3
1 3 3 3 3 4 4 4 4 4 3 3 3 2 2 2 1 1 1 1 1 1 2 2 3 2 2 3 3 2 2 2 2 2 2 2 2 2 2 2 3 4 3
2 2 3 3 2 3 4 5 5 3 3 3 3 3 2 2 1 2 1 1 1 1 2 2 2 3 2 2 3 3 3 3 2 2 3 3 2 1 1 2 2 3 2
2 2 3 3 2 3 3 4 3 3 4 3 3 3 2 2 1 1 2 2 2 2 2 2 2 3 3 2 2 2 2 2 2 2 2 2 1 0 0 0 1 1 2
1 2 3 3 3 2 2 3 2 3 3 3 3 3 3 2 2 2 3 4 4 4 4 3 3 3 3 3 3 2 2 2 1 1 1 0 1 1 1 0 0 0 1
2 2 2 3 2 2 2 2 2 3 3 3 3 3 2 2 2 2 2 3 5 5 6 6 5 4 5 5 4 4 3 3 2 1 0 1 1 1 1 1 1 1 1
Wind_Direction
228 193 176 166 160 160 161 170 171 169 154 155 163 153 162 128 56 101 130 147 141 144 147 137 125 129 138 143 127 108 102 95 74 70 29 6 9 357 343 358 8 318 277
193 178 163 161 169 173 170 166 169 167 166 178 170 138 122 114 99 322 34 189 164 159 158 143 152 158 148 127 130 115 114 124 105 112 91 4 350 352 354 4 8 328 312
199 186 169 167 165 173 178 177 171 163 161 147 115 100 82 66 49 300 268 264 193 169 149 155 149 156 158 175 188 169 156 172 194 128 137 144 230 311 329 338 342 334 318
204 184 166 159 168 179 170 162 158 153 151 142 146 156 157 180 212 219 230 297 41 138 136 156 150 154 167 196 208 187 183 166 185 197 130 160 163 169 308 326 331 320 300
183 182 179 171 159 152 153 153 145 144 145 144 151 154 163 192 182 160 143 320 330 46 83 153 148 164 188 217 221 203 191 188 186 179 168 146 128 158 177 274 314 323 301
134 132 115 112 108 112 117 122 126 138 138 135 147 161 170 165 147 167 181 259 303 303 320 177 159 198 205 221 229 219 207 206 200 192 186 180 176 186 179 216 262 285 297
125 117 111 115 113 108 106 116 130 134 134 134 143 160 171 172 173 184 194 208 256 261 253 241 232 242 240 231 229 220 222 212 209 209 208 208 204 180 172 183 224 268 297
122 123 126 124 122 123 121 127 137 137 135 134 132 130 145 167 179 185 185 203 228 245 250 242 249 258 254 247 231 225 226 217 216 221 210 205 212 189 182 179 176 233 297
125 122 120 121 122 129 138 147 144 133 124 130 129 131 131 150 190 190 182 215 240 255 261 259 266 276 266 254 237 236 228 217 214 215 209 207 209 205 199 185 182 187 238
131 129 132 136 130 133 127 119 128 139 133 121 125 130 114 143 192 174 215 250 271 275 300 298 284 282 277 270 251 253 239 210 209 200 197 207 207 205 203 197 195 189 203
157 152 141 142 131 120 117 113 118 115 108 105 99 89 78 87 116 116 276 279 288 309 315 294 288 284 289 286 266 264 247 213 211 208 202 212 202 195 200 196 190 192 187
146 143 143 144 136 138 142 138 134 134 134 127 107 95 84 69 62 344 304 309 314 314 299 300 301 301 303 291 270 265 255 234 227 223 212 220 208 203 203 195 199 200 195
137 130 131 146 159 157 147 140 141 147 136 122 112 99 75 52 314 303 309 309 304 307 309 296 290 291 290 284 270 258 247 240 239 227 217 222 207 210 206 199 203 202 192
155 153 152 168 171 153 140 138 140 144 133 125 123 109 118 257 273 301 313 308 298 292 290 282 277 280 285 283 272 257 250 250 249 239 227 223 213 214 207 204 202 190 177
184 182 179 180 168 142 135 140 144 150 150 143 142 168 222 268 305 323 321 326 316 297 288 292 298 297 287 282 266 250 248 250 257 254 237 230 226 222 211 205 193 185 185
197 195 188 180 179 172 163 158 159 165 154 156 178 183 148 294 306 302 322 331 322 311 306 299 295 299 299 303 285 256 249 245 244 256 256 249 236 233 225 215 203 193 192
200 194 195 191 192 190 178 174 176 161 157 173 189 192 217 255 285 311 338 319 312 319 314 302 294 291 298 299 286 269 250 249 248 247 247 256 262 234 226 212 203 206 208
200 201 194 193 191 179 173 172 166 158 164 180 195 201 212 249 292 310 299 300 302 298 294 300 297 296 310 315 301 279 266 263 261 251 239 239 266 257 220 201 205 216 219
209 204 195 188 177 179 175 161 169 168 174 194 208 207 204 219 254 280 287 290 293 295 296 301 308 303 306 316 313 288 274 277 284 279 264 238 243 249 205 188 203 224 244
205 189 175 164 169 185 169 162 179 180 200 213 217 209 202 207 233 254 272 286 289 290 299 306 303 295 298 310 312 294 264 279 290 298 293 274 259 244 199 196 198 216 239
205 173 166 174 188 178 162 172 188 211 218 212 205 202 210 215 230 248 268 289 304 317 312 304 305 297 293 302 309 297 255 259 268 280 288 286 272 240 216 208 216 222 221
184 168 169 182 187 176 167 181 211 224 210 193 195 209 219 228 231 222 269 285 284 305 308 315 318 311 301 296 294 292 273 266 257 266 272 272 261 236 223 218 225 203 187
180 169 167 172 185 191 180 192 220 211 190 185 199 215 225 232 221 210 229 264 260 261 279 292 303 310 312 305 295 285 281 281 264 272 276 277 267 240 233 240 210 181 177
187 168 163 174 199 215 206 207 212 194 182 191 206 215 217 233 233 220 218 230 241 245 256 266 281 295 302 306 311 300 277 276 273 289 302 299 282 101 6 12 203 203 194
206 177 179 189 209 218 227 223 201 179 187 200 209 217 216 215 226 233 230 232 237 223 226 242 246 259 281 282 274 265 263 258 261 294 319 354 19 13 356 0 156 185 174
194 184 182 183 200 205 224 226 199 180 185 201 210 214 217 217 219 236 277 267 249 245 237 236 235 244 249 269 262 258 264 269 238 181 233 251 233 228 235 237 229 209 206